LRFT Weather Reports


time (UTC)temp
C
wind
direction
speed
KPH
gust
KPH
rain 1hr
cm
rain 24hr
cm
rain mn
cm
humidity
%
barometer
mb
20260903191859 21 90 11.3 0.0 0.00 0.00 0.00 46 1016.0
20260903190400 21 90 11.3 0.0 0.00 0.00 0.00 46 1016.0
20260903184900 23 10 11.3 0.0 0.00 0.00 0.00 47 1016.0
20260903183401 23 10 11.3 0.0 0.00 0.00 0.00 47 1016.0
20260903181859 23 10 11.3 0.0 0.00 0.00 0.00 47 1016.0
20260903180400 23 10 11.3 0.0 0.00 0.00 0.00 47 1016.0
20260903174900 26 20 14.5 0.0 0.00 0.00 0.00 39 1015.0
20260903173401 26 20 14.5 0.0 0.00 0.00 0.00 39 1015.0
20260903171901 26 20 14.5 0.0 0.00 0.00 0.00 39 1015.0
20260903170401 -17 0.0 0.0 0.00 0.00 0.00
20260903164900 28 20 17.7 0.0 0.00 0.00 0.00 35 1015.0
20260903163400 28 20 17.7 0.0 0.00 0.00 0.00 35 1015.0
20260903161900 28 20 17.7 0.0 0.00 0.00 0.00 35 1015.0
20260903160401 28 20 17.7 0.0 0.00 0.00 0.00 35 1015.0
20260903154901 30 10 17.7 0.0 0.00 0.00 0.00 33 1015.0
20260903153401 30 10 17.7 0.0 0.00 0.00 0.00 33 1015.0
20260903151901 30 10 17.7 0.0 0.00 0.00 0.00 33 1015.0
20260903150401 30 10 17.7 0.0 0.00 0.00 0.00 33 1015.0
20260903144859 30 40 22.5 0.0 0.00 0.00 0.00 31 1015.0
20260903143400 30 40 22.5 0.0 0.00 0.00 0.00 31 1015.0
20260903141900 30 40 22.5 0.0 0.00 0.00 0.00 31 1015.0
20260903140400 30 40 22.5 0.0 0.00 0.00 0.00 31 1015.0
20260903134901 -17 0.0 0.0 0.00 0.00 0.00
20260903133359 -17 0.0 0.0 0.00 0.00 0.00
20260903131900 -17 0.0 0.0 0.00 0.00 0.00
20260903130401 -17 0.0 0.0 0.00 0.00 0.00
20260903124900 31 10 22.5 0.0 0.00 0.00 0.00 31 1016.0
20260903123411 31 10 22.5 0.0 0.00 0.00 0.00 31 1016.0
20260903121859 31 10 22.5 0.0 0.00 0.00 0.00 31 1016.0
20260903120400 31 10 22.5 0.0 0.00 0.00 0.00 31 1016.0
20260903114901 30 20 17.7 0.0 0.00 0.00 0.00 38 1016.0
20260903113359 30 20 17.7 0.0 0.00 0.00 0.00 38 1016.0
20260903111901 30 20 17.7 0.0 0.00 0.00 0.00 38 1016.0
20260903110400 30 20 17.7 0.0 0.00 0.00 0.00 38 1016.0
20260903104900 28 360 24.1 0.0 0.00 0.00 0.00 43 1017.0
20260903103400 28 360 24.1 0.0 0.00 0.00 0.00 43 1017.0
20260903101900 28 360 24.1 0.0 0.00 0.00 0.00 43 1017.0
20260903100400 -17 0.0 0.0 0.00 0.00 0.00
20260903094859 27 20 25.7 0.0 0.00 0.00 0.00 42 1017.0
20260903093400 27 20 25.7 0.0 0.00 0.00 0.00 42 1017.0
20260903091917 27 20 25.7 0.0 0.00 0.00 0.00 42 1017.0
20260903090416 -17 0.0 0.0 0.00 0.00 0.00
20260903084900 -17 0.0 0.0 0.00 0.00 0.00
20260903083400 -17 0.0 0.0 0.00 0.00 0.00
20260903081900 -17 0.0 0.0 0.00 0.00 0.00
20260903080359 -17 0.0 0.0 0.00 0.00 0.00
20260903074858 23 10 17.7 0.0 0.00 0.00 0.00 57 1017.0
20260903073400 23 10 17.7 0.0 0.00 0.00 0.00 57 1017.0
20260903071859 -17 0.0 0.0 0.00 0.00 0.00
20260903070400 -17 0.0 0.0 0.00 0.00 0.00
20260903064900 22 350 17.7 0.0 0.00 0.00 0.00 69 1018.0
20260903063400 22 350 17.7 0.0 0.00 0.00 0.00 69 1018.0
20260903061900 22 350 17.7 0.0 0.00 0.00 0.00 69 1018.0
20260903060404 -17 0.0 0.0 0.00 0.00 0.00
20260903054905 20 360 11.3 0.0 0.00 0.00 0.00 78 1017.0
20260903053400 20 360 11.3 0.0 0.00 0.00 0.00 78 1017.0
20260903051901 20 360 11.3 0.0 0.00 0.00 0.00 78 1017.0
20260903050401 20 360 11.3 0.0 0.00 0.00 0.00 78 1017.0
20260903044859 18 350 11.3 0.0 0.00 0.00 0.00 88 1017.0
20260903043359 18 350 11.3 0.0 0.00 0.00 0.00 88 1017.0
20260903041859 18 350 11.3 0.0 0.00 0.00 0.00 88 1017.0
20260903040400 18 350 11.3 0.0 0.00 0.00 0.00 88 1017.0
20260903034900 18 340 4.8 0.0 0.00 0.00 0.00 83 1017.0
20260903033400 18 340 4.8 0.0 0.00 0.00 0.00 83 1017.0
20260903031900 18 340 4.8 0.0 0.00 0.00 0.00 83 1017.0
20260903030515 -17 0.0 0.0 0.00 0.00 0.00
20260903025014 -17 0.0 0.0 0.00 0.00 0.00
20260903023447 -17 0.0 0.0 0.00 0.00 0.00
20260903021859 -17 0.0 0.0 0.00 0.00 0.00
20260903020521 -17 0.0 0.0 0.00 0.00 0.00
20260903014900 -17 0.0 0.0 0.00 0.00 0.00
20260903013359 -17 0.0 0.0 0.00 0.00 0.00
20260903011859 -17 0.0 0.0 0.00 0.00 0.00
20260903010400 -17 0.0 0.0 0.00 0.00 0.00
20260903004900 -17 0.0 0.0 0.00 0.00 0.00
20260903003400 -17 0.0 0.0 0.00 0.00 0.00
20260903001900 -17 0.0 0.0 0.00 0.00 0.00
20260903000359 -17 0.0 0.0 0.00 0.00 0.00
20260902234859 -17 0.0 0.0 0.00 0.00 0.00
20260902233400 -17 0.0 0.0 0.00 0.00 0.00
20260902231901 -17 0.0 0.0 0.00 0.00 0.00
20260902230359 -17 0.0 0.0 0.00 0.00 0.00
20260902224859 20 50 9.7 0.0 0.00 0.00 0.00 69 1018.0
20260902223359 20 50 9.7 0.0 0.00 0.00 0.00 69 1018.0
20260902221859 20 50 9.7 0.0 0.00 0.00 0.00 69 1018.0
20260902220359 20 50 9.7 0.0 0.00 0.00 0.00 69 1018.0
20260902214900 21 60 9.7 0.0 0.00 0.00 0.00 64 1017.0
20260902213400 21 60 9.7 0.0 0.00 0.00 0.00 64 1017.0
20260902211857 21 60 9.7 0.0 0.00 0.00 0.00 64 1017.0
20260902210400 -17 0.0 0.0 0.00 0.00 0.00
20260902204859 21 60 9.7 0.0 0.00 0.00 0.00 64 1017.0
20260902203400 21 60 9.7 0.0 0.00 0.00 0.00 64 1017.0
20260902201900 21 60 9.7 0.0 0.00 0.00 0.00 64 1017.0
20260902200415 21 60 9.7 0.0 0.00 0.00 0.00 64 1017.0
20260902194859 22 110 9.7 0.0 0.00 0.00 0.00 61 1017.0
20260902193359 22 110 9.7 0.0 0.00 0.00 0.00 61 1017.0